Погода в Бандунду

Демократическая Республика Конго     4°33′38″S   18°26′12″E
темп.,
°C
ветер,
м/с
пор.,
м/с
влажн.,
%
обл.,
%
осадки,
мм/ч
давл.,
гПа
погр.,
м
10 апреля, сб
сб1001:00+22ююз1186100 0.1 100921
04:00+22ююв1188100 0.3 100917
07:00+23юв1286100 0.3 1011106
10:00+28ю236393 0.0 1011978
13:00+32юз115145 0.0 10071739
16:00+28юз247389 0.3 1006198
19:00+24юз1188100 1.4 100814
22:00+22юв1195100 0.7 101013
11 апреля, вс
вс1101:00+22ю2594100 0.9 1009114
04:00+21ююв1396100 0.0 100971
07:00+22ююв279248 0.3 1011238
10:00+29вюв245953 0.0 1012946
13:00+33вюв224638 0.0 10081712
16:00+29ссв266598 0.4 1007318
19:00+23ссз1298100 36.8 1011111
22:00+22св2897100 8.4 1013561
12 апреля, пн
пн1201:00+20ю1299100 10.2 101365
04:00+21юз1299100 3.9 1012106
07:00+21зюз1398100 6.1 1014113
10:00+21юв0197100 0.3 1016108
13:00+22зюз119389 0.3 1013255
16:00+26юз11736 0.0 1011671
19:00+21зюз119514 0.0 101214
22:00+21ююз119749 0.0 101313
13 апреля, вт
вт1301:00+20ю119821 0.0 101215
04:00+20ююв119898 0.0 101220
07:00+22ююв26895 0.0 1013185
10:00+29ююв24605 0.0 1014995
13:00+33ю124739 0.0 10101874
16:00+30ссз116294 0.0 1009973
19:00+22юв379792 5.3 1011151
22:00+22вюв1399100 16.9 101490
14 апреля, ср
ср1401:00+21ююз1298100 17.1 101372
04:00+21ююз2297100 0.6 101370
07:00+21ю1497100 4.9 1015137
10:00+24ю248392 0.0 1015381
13:00+28ю336465 0.0 1012964
16:00+27ююв237298 0.0 1009510
19:00+22ю2492100 0.0 1010114
22:00+21ю2389100 0.0 101270